(199846) = 2005 UG170 = 2007 EY71

Discovered at Kitt Peak on 2007-03-10 by Spacewatch.

Orbit

Orbit type: Main Belt

Note: WebGL enabled browser required.

epoch2024-03-31.0
epoch JD2460400.5
perihelion date2024-03-04.31727
perihelion JD2460373.81727
argument of perihelion (°)205.25061
ascending node (°)27.30848
inclination (°)4.43027
eccentricity0.1298153
perihelion distance (AU)1.9371736
Tisserand w.r.t. Jupiter3.6
ΔV w.r.t. Earth (km/sec)8.7
semimajor axis (AU)2.2261637
mean anomaly (°)7.91769
mean daily motion (°/day)0.29673460
aphelion distance (AU)2.515
period (years)3.32
P-vector [x]-0.60852774
P-vector [y]-0.71431667
P-vector [z]-0.34560915
Q-vector [x]0.79274087
Q-vector [y]-0.52778303
Q-vector [z]-0.30497048
absolute magnitude16.9
phase slope0.15
uncertainty0
referenceMPEC 2024-E179
observations used515
oppositions15
arc length (days)8884
first opposition used1998
last opposition used2023
residual rms (arc-secs)0.81
perturbers coarse indicatorM-v
perturbers precise indicator003Ek
first observation date used1998-09-16.0
last observation date used2023-01-12.0
computer nameMPCLINUX
JD of orbit computation2456847.782911
perihelion JD uncertainty (days)9.4314E-05
argument of perihelion uncertainty (°)7.8311E-05
ascending node uncertainty (°)7.1903E-05
inclination uncertainty (°)9.0010E-06
eccentricity uncertainty 7.3365E-08
perihelion distance uncertainty (AU)1.5683E-07
Minimum Orbit Intersection Distances (in AU)
for orbit epoch: 2460400.5, reference: E2024-ED3
Mercury1.47701
Venus1.21481
Earth0.92757
Mars0.35281
Jupiter2.46978
Saturn6.57953
Uranus16.2969
Neptune27.3216

Observations

533 total observations over interval: 1998 09 16.45993 – 2023 01 12.231000
These data are available for download (format description).

Date (UT) J2000 RA J2000 Dec Magn Location Ref
1998 09 16.45993 00 50 37.42 +02 16 07.9 21.2 V 691 – Steward Observatory, Kitt Peak-Spacewatch MPS 206267
1998 09 16.46474 00 50 37.12 +02 16 06.6 21.1 V 691 – Steward Observatory, Kitt Peak-Spacewatch MPS 206267
1998 09 16.47041 00 50 36.79 +02 16 05.2 20.5 V 691 – Steward Observatory, Kitt Peak-Spacewatch MPS 206267
1998 09 16.47944 00 50 36.32 +02 16 02.7 20.3 V 691 – Steward Observatory, Kitt Peak-Spacewatch MPS 206267
2001 08 19.29725 21 52 35.38 -20 38 33.9 19.1   704 – Lincoln Laboratory ETS, New Mexico MPS 213875
2001 08 19.31007 21 52 34.49 -20 38 36.2 19.2   704 – Lincoln Laboratory ETS, New Mexico MPS 213875
2001 08 19.32275 21 52 33.59 -20 38 39.2 19.2   704 – Lincoln Laboratory ETS, New Mexico MPS 213875
2005 10 24.31783 03 23 20.03 +20 47 23.2 20.1 V 691 – Steward Observatory, Kitt Peak-Spacewatch MPS 149800
2005 10 24.33522 03 23 19.02 +20 47 21.8 20.2 V 691 – Steward Observatory, Kitt Peak-Spacewatch MPS 149800
2005 10 24.35259 03 23 17.96 +20 47 20.6 20.6 V 691 – Steward Observatory, Kitt Peak-Spacewatch MPS 149800
2005 10 28.24449 03 19 25.03 +20 41 07.9 20.2 V 691 – Steward Observatory, Kitt Peak-Spacewatch MPS 149800
2005 10 28.26188 03 19 23.89 +20 41 05.8 20.0 V 691 – Steward Observatory, Kitt Peak-Spacewatch MPS 149800
2005 10 28.27926 03 19 22.79 +20 41 04.1 20.4 V 691 – Steward Observatory, Kitt Peak-Spacewatch MPS 149800
2005 11 01.28729 03 15 05.88 +20 33 00.0 20.0 V 691 – Steward Observatory, Kitt Peak-Spacewatch MPS 206267
2005 11 01.30454 03 15 04.70 +20 32 57.8 19.9 V 691 – Steward Observatory, Kitt Peak-Spacewatch MPS 206267
2005 11 01.32184 03 15 03.52 +20 32 55.5 20.0 V 691 – Steward Observatory, Kitt Peak-Spacewatch MPS 206267
2007 02 26.35201 12 55 47.74 -01 37 51.4 19.2 V G96 – Mt. Lemmon Survey MPS 206267
2007 02 26.36092 12 55 47.56 -01 37 51.2 20.0 V G96 – Mt. Lemmon Survey MPS 206267
2007 02 26.36966 12 55 47.35 -01 37 50.6 20.0 V G96 – Mt. Lemmon Survey MPS 206267
2007 02 26.37844 12 55 47.17 -01 37 50.2 20.2 V G96 – Mt. Lemmon Survey MPS 206267
2007 03 10.35054 12 49 35.53 -01 15 54.3 19.6 V 691 – Steward Observatory, Kitt Peak-Spacewatch MPS 203289
2007 03 10.36820 12 49 34.73 -01 15 51.6 19.4 V 691 – Steward Observatory, Kitt Peak-Spacewatch MPS 203289
2007 03 10.38585 12 49 33.93 -01 15 48.8 19.3 V 691 – Steward Observatory, Kitt Peak-Spacewatch MPS 203289
2007 03 10.42528 12 49 32.16 -01 15 42.7 19.2 V G96 – Mt. Lemmon Survey MPS 204712
2007 03 10.43406 12 49 31.76 -01 15 41.4 18.8 V G96 – Mt. Lemmon Survey MPS 204712
2007 03 10.44274 12 49 31.36 -01 15 39.9 19.3 V G96 – Mt. Lemmon Survey MPS 204712
2007 03 10.45153 12 49 30.97 -01 15 38.7 19.0 V G96 – Mt. Lemmon Survey MPS 204712
2007 03 14.23232 12 46 38.91 -01 05 03.3 19.4 V 691 – Steward Observatory, Kitt Peak-Spacewatch MPS 203289
2007 03 14.25001 12 46 38.02 -01 05 00.3 19.5 V 691 – Steward Observatory, Kitt Peak-Spacewatch MPS 203289
2007 03 14.26769 12 46 37.13 -01 04 57.4 20.0 V 691 – Steward Observatory, Kitt Peak-Spacewatch MPS 203289
2007 03 16.31310 12 44 54.18 -00 58 42.5 18.8 R 699 – Lowell Observatory-LONEOS MPS 203289
2007 03 16.32730 12 44 53.36 -00 58 38.4 19.5   704 – Lincoln Laboratory ETS, New Mexico MPS 203289
2007 03 16.33805 12 44 52.75 -00 58 36.8 19.7   704 – Lincoln Laboratory ETS, New Mexico MPS 203289
2007 03 16.33865 12 44 52.81 -00 58 35.9   699 – Lowell Observatory-LONEOS MPS 203289
2007 03 16.34878 12 44 52.27 -00 58 35.7 19.8   704 – Lincoln Laboratory ETS, New Mexico MPS 203289
2007 03 16.35947 12 44 51.59 -00 58 31.4 19.4   704 – Lincoln Laboratory ETS, New Mexico MPS 203289
2007 03 16.36422 12 44 51.40 -00 58 31.4   699 – Lowell Observatory-LONEOS MPS 203289
2007 03 16.37006 12 44 50.99 -00 58 29.3 19.3   704 – Lincoln Laboratory ETS, New Mexico MPS 203289
2007 03 16.38980 12 44 49.91 -00 58 28.1   699 – Lowell Observatory-LONEOS MPS 203289
2007 04 08.27132 12 22 05.44 +00 15 23.8 19.0 R 644 – Palomar Mountain/NEAT MPS 206267
2007 04 08.29164 12 22 04.20 +00 15 27.0 18.9 R 644 – Palomar Mountain/NEAT MPS 206267
2007 04 08.31192 12 22 02.95 +00 15 30.2 19.7 R 644 – Palomar Mountain/NEAT MPS 206267
2007 04 11.59351 12 18 54.20 +00 23 17.5 19.7 R D29 – Purple Mountain Observatory, XuYi Station MPS 206267
2007 04 11.61791 12 18 52.71 +00 23 19.9 18.5 R D29 – Purple Mountain Observatory, XuYi Station MPS 206267
2007 04 11.65620 12 18 50.49 +00 23 24.7 18.8 R D29 – Purple Mountain Observatory, XuYi Station MPS 206267
2007 04 11.67851 12 18 49.19 +00 23 28.3 18.3 R D29 – Purple Mountain Observatory, XuYi Station MPS 206267
2007 04 16.20692 12 14 49.01 +00 31 40.6 18.7 R 699 – Lowell Observatory-LONEOS MPS 206983
2007 04 16.22880 12 14 47.85 +00 31 43.3   699 – Lowell Observatory-LONEOS MPS 206983
2007 04 16.23042 12 14 47.76 +00 31 42.7 18.9 V 703 – Catalina Sky Survey MPS 206983
2007 04 16.23579 12 14 47.43 +00 31 44.1 19.2 V 703 – Catalina Sky Survey MPS 206983
2007 04 16.24113 12 14 47.14 +00 31 42.5 19.6 V 703 – Catalina Sky Survey MPS 206983
2007 04 16.24648 12 14 46.82 +00 31 44.2 20.0 V 703 – Catalina Sky Survey MPS 206983
2007 04 16.25070 12 14 46.76 +00 31 44.2   699 – Lowell Observatory-LONEOS MPS 206983
2007 04 16.26864 12 14 45.70 +00 31 46.5 19.1   704 – Lincoln Laboratory ETS, New Mexico MPS 206983
2007 04 16.27263 12 14 45.53 +00 31 46.3   699 – Lowell Observatory-LONEOS MPS 206983
2007 04 16.27813 12 14 45.19 +00 31 48.2 19.1   704 – Lincoln Laboratory ETS, New Mexico MPS 206983
2007 04 16.28728 12 14 44.71 +00 31 49.3 19.6   704 – Lincoln Laboratory ETS, New Mexico MPS 206983
2007 04 16.29642 12 14 44.23 +00 31 49.2 19.3   704 – Lincoln Laboratory ETS, New Mexico MPS 206983
2007 04 16.30556 12 14 43.73 +00 31 50.2 19.2   704 – Lincoln Laboratory ETS, New Mexico MPS 206983
2008 09 03.40659 01 18 17.03 +05 21 45.9 20.3 V 691 – Steward Observatory, Kitt Peak-Spacewatch MPS 255241
2008 09 03.42418 01 18 16.42 +05 21 43.8 20.3 V 691 – Steward Observatory, Kitt Peak-Spacewatch MPS 255241
2008 09 03.44177 01 18 15.87 +05 21 41.6 20.6 V 691 – Steward Observatory, Kitt Peak-Spacewatch MPS 255241
2008 09 28.24082 00 58 10.28 +03 53 55.6 20.0   704 – Lincoln Laboratory ETS, New Mexico MPS 258013
2008 09 28.25304 00 58 09.54 +03 53 53.2 20.5   704 – Lincoln Laboratory ETS, New Mexico MPS 258013
2008 09 28.26519 00 58 08.75 +03 53 50.6 20.1   704 – Lincoln Laboratory ETS, New Mexico MPS 258013
2008 09 28.27735 00 58 08.00 +03 53 47.3 20.5   704 – Lincoln Laboratory ETS, New Mexico MPS 258013
2008 09 29.28321 00 57 05.94 +03 49 13.3 20.1   704 – Lincoln Laboratory ETS, New Mexico MPS 258013
2008 09 29.30778 00 57 04.37 +03 49 06.7 20.2   704 – Lincoln Laboratory ETS, New Mexico MPS 258013
2008 09 29.32008 00 57 03.59 +03 49 02.9 20.0   704 – Lincoln Laboratory ETS, New Mexico MPS 258013
2008 09 29.32432 00 57 03.31 +03 49 02.8 19.7 V 703 – Catalina Sky Survey MPS 258013
2008 09 29.33093 00 57 02.88 +03 48 59.6 19.1 V 703 – Catalina Sky Survey MPS 258013
2008 09 29.33236 00 57 02.82 +03 49 00.1 20.0   704 – Lincoln Laboratory ETS, New Mexico MPS 258013
2008 09 29.33750 00 57 02.48 +03 48 58.8 19.1 V 703 – Catalina Sky Survey MPS 258013
2008 09 29.34406 00 57 02.08 +03 48 54.7 18.8 V 703 – Catalina Sky Survey MPS 258013
2008 10 03.97774 00 52 11.92 +03 27 45.5 18.9 V J75 – OAM Observatory, La Sagra MPS 259315
2008 10 03.99101 00 52 11.05 +03 27 42.1 19.2 V J75 – OAM Observatory, La Sagra MPS 259315
2008 10 04.00426 00 52 10.22 +03 27 38.6 19.7 V J75 – OAM Observatory, La Sagra MPS 259315
2008 10 08.27880 00 47 41.24 +03 08 21.7 19.6 V 703 – Catalina Sky Survey MPS 259315
2008 10 08.28605 00 47 40.77 +03 08 19.9 19.6 V 703 – Catalina Sky Survey MPS 259315
2008 10 08.29326 00 47 40.30 +03 08 16.8 19.5 V 703 – Catalina Sky Survey MPS 259315
2008 10 08.30058 00 47 39.87 +03 08 16.0 19.8 V 703 – Catalina Sky Survey MPS 259315
2008 10 09.29002 00 46 38.17 +03 03 53.0 20.2 V G96 – Mt. Lemmon Survey MPS 259315
2008 10 09.29530 00 46 37.84 +03 03 52.0 20.1 V G96 – Mt. Lemmon Survey MPS 259315
2008 10 09.30058 00 46 37.48 +03 03 50.2 20.0 V G96 – Mt. Lemmon Survey MPS 259315
2008 10 09.30583 00 46 37.16 +03 03 48.8 19.4 V G96 – Mt. Lemmon Survey MPS 259315
